ZPTAI SSER-SBJD

Flight info

Callsign ZPTAI
Flight time N/A
Altitude FL075
Route PUMLI/N0100F090 IFR EGBUG UTGED XONUG LOLAG PUGBU
Aircraft C172/L-SG/C

Departure

Time 2026-05-05 20:28
Airport Erechim Airport (SSER)

Arrival

Time N/A
Airport Comte. Rolim Adolfo Amaro–Jundiaí State Airport (SBJD)
Time Latitude Longitude Altitude Speed Heading
2026-05-05 20:23 -27.66270 -52.27153 2502 ft 0 kts 137°
2026-05-05 20:24 -27.66271 -52.27152 2502 ft 0 kts 136°
2026-05-05 20:25 -27.66294 -52.27117 2502 ft 14 kts 123°
2026-05-05 20:25 -27.66374 -52.26972 2502 ft 28 kts 123°
2026-05-05 20:25 -27.66503 -52.26747 2502 ft 40 kts 115°
2026-05-05 20:25 -27.66609 -52.26563 2502 ft 9 kts 62°
2026-05-05 20:26 -27.66602 -52.26564 2502 ft 0 kts 297°
2026-05-05 20:26 -27.66595 -52.26582 2502 ft 18 kts 299°
2026-05-05 20:26 -27.66454 -52.26836 2502 ft 57 kts 303°
2026-05-05 20:26 -27.66195 -52.27289 2502 ft 78 kts 308°
2026-05-05 20:27 -27.65903 -52.27789 2610 ft 74 kts 311°
2026-05-05 20:27 -27.65468 -52.27882 2666 ft 70 kts 33°
2026-05-05 20:27 -27.65108 -52.27537 2772 ft 71 kts 33°
2026-05-05 20:27 -27.64699 -52.27198 2874 ft 75 kts 34°
2026-05-05 20:28 -27.64264 -52.26842 2969 ft 80 kts 34°
2026-05-05 20:28 -27.63822 -52.26483 3051 ft 83 kts 34°
2026-05-05 20:28 -27.63333 -52.26090 3129 ft 86 kts 34°
2026-05-05 20:28 -27.62829 -52.25682 3204 ft 88 kts 34°
2026-05-05 20:29 -27.62338 -52.25286 3303 ft 87 kts 32°
2026-05-05 20:29 -27.61850 -52.24891 3407 ft 86 kts 30°
2026-05-05 20:29 -27.61366 -52.24503 3518 ft 85 kts 30°
2026-05-05 20:29 -27.60888 -52.24119 3629 ft 84 kts 30°
2026-05-05 20:30 -27.60421 -52.23741 3743 ft 82 kts 31°
2026-05-05 20:30 -27.59968 -52.23370 3855 ft 80 kts 31°
2026-05-05 20:30 -27.59522 -52.23005 3957 ft 80 kts 30°
2026-05-05 20:30 -27.59074 -52.22638 4063 ft 78 kts 30°
2026-05-05 20:31 -27.58648 -52.22285 4178 ft 75 kts 30°
2026-05-05 20:31 -27.58233 -52.21940 4285 ft 73 kts 28°
2026-05-05 20:31 -27.57826 -52.21600 4384 ft 73 kts 27°
2026-05-05 20:31 -27.57418 -52.21259 4477 ft 73 kts 27°
2026-05-05 20:32 -27.57010 -52.20920 4569 ft 73 kts 26°
2026-05-05 20:32 -27.56604 -52.20581 4664 ft 73 kts 26°
2026-05-05 20:32 -27.56197 -52.20244 4753 ft 73 kts 26°
2026-05-05 20:32 -27.55793 -52.19909 4847 ft 72 kts 25°
2026-05-05 20:33 -27.55390 -52.19579 4935 ft 72 kts 25°
2026-05-05 20:33 -27.54990 -52.19251 5026 ft 71 kts 25°
2026-05-05 20:33 -27.54591 -52.18922 5114 ft 71 kts 25°
2026-05-05 20:33 -27.54199 -52.18596 5203 ft 70 kts 24°
2026-05-05 20:34 -27.53809 -52.18270 5290 ft 70 kts 24°
2026-05-05 20:34 -27.53415 -52.17942 5380 ft 71 kts 25°
2026-05-05 20:34 -27.53007 -52.17607 5477 ft 74 kts 25°
2026-05-05 20:34 -27.52581 -52.17263 5567 ft 78 kts 26°
2026-05-05 20:35 -27.52135 -52.16901 5663 ft 80 kts 26°
2026-05-05 20:35 -27.51675 -52.16533 5758 ft 82 kts 26°
2026-05-05 20:35 -27.51203 -52.16160 5858 ft 83 kts 26°
2026-05-05 20:35 -27.50726 -52.15784 5958 ft 84 kts 26°
2026-05-05 20:36 -27.50247 -52.15407 6060 ft 84 kts 26°
2026-05-05 20:36 -27.49766 -52.15030 6162 ft 84 kts 26°
2026-05-05 20:36 -27.49286 -52.14654 6262 ft 84 kts 26°
2026-05-05 20:36 -27.48809 -52.14280 6361 ft 84 kts 26°
2026-05-05 20:37 -27.48490 -52.14030 6427 ft 84 kts 26°